Карточка аэропорта UUYY

Внимание!
Информация на этой странице в стадии наполнения.
Если вы не увидели какой-то информации, или заметили неточность - пожалуйста сообщите нам!
Спасибо!
Команда RU-STAFF
Название аэропортаСыктывкар
Название аэропорта (англ.)Syktyvkar
Превышение339 ft. (103.3 m.)
Координаты61°38.502', 50°50.298'
Высота перехода3000 feet
Эшелон переходаQNH>=1013hPa:FL040; QNH<1013hPa:FL050; QNH<977hPa:FL060
Коды ответчика3130-3134, 5752-5757, 5770-5777, 6701-6717
Зона ОрВДСанкт-Петербург РПИ (ULLL)
Данные METARUUYY 071830Z 21004MPS CAVOK M07/M09 Q1025 R18/450238 NOSIG RMK QFE760/1014
Проноз погоды (TAF)UUYY 071700Z 0718/0818 21005G12MPS 6000 -SN BKN016 TEMPO 0718/0724 1000 SHSN BKN004 BKN017CB FM080300 20003G08MPS 9999 SCT016
NOTAMshow/hide NOTAM
AWOS   TABLE

Информация о ВПП

ВПП Длина ВПП (м.) Покрытие Курс ВПП Частота ILS
012500Асфальтобетон6108.3
192500Асфальтобетон186111.7

Диспетчерские позиции

Позывной Наименование органа УВД Частота
UUYY_TWRСивкар-Старт124.600
UUYY_R_APPСивкар-Круг124.600



Спутниковое изображение